Starlink 31186

operational
NORAD ID: 59030 Int'l Des: 2024-038 Owner: SPXS Country: US Constellation: starlink
LEOCIRCULAR

Über Starlink 31186

Beschreibung wird geladen...

Live-Position

3D-Globus wird geladen...

Nächste Überflüge

Höhenverlauf

Altitude vs Time

uPlot chart will show altitude changes over time

Zweizeiliger Elementsatz

1 59030U 24038H 25353.64375472 .00004557 00000-0 17505-3 0 9992
2 59030 43.0029 119.2933 0001763 278.5386 81.5266 15.27575432102519
Epoch: 19. Dez. 2025 • Age: 6 hours

Aktueller Status

Höhe 485.3 km
Geschwindigkeit 7.62 km/s
Subsatellitenpunkt -13.25°S, 91.6°W
Startdatum 25. Feb. 2024
Alter 1.8 years
Typ internet

Technische Details

Klassifizierung Payload
Masse 730.00 kg
Trockenmasse 700.00 kg
Gesamtmasse 730.00 kg
Länge 0.30 m
Durchmesser 4.10 m
Spannweite 29.00 m
Form Box + pan
Hersteller SPXS
Bus-Typ Starlink V2M
Phasenstatus In Orbit
Besitzer/Staat SPXS/US

Große Konstellationen

Loading constellations...